STARLINK-33567 (62773 NORAD) Tracking and Keplerian Element Data

This shows tracking and keplerian element data for the satellite.

Feedback or suggestion? Click here.




ElementValue
Catalog62773
NameSTARLINK-33567
Epoch Orbit5216
Epoch Day353.22894464
Epoch Year2025
RAAN336.0855
Inclination53.1622
Eccentricity0.0001128
Argument of Perigee82.3056
Mean Anonmoly277.8073
Mean Motion15.30196441
Decay Rate0.00029107
L11 62773U 25015R 25353.22894464 .00029107 00000+0 99113-3 0 9999
L22 62773 53.1622 336.0855 0001128 82.3056 277.8073 15.30196441 52164



Live tracking and technical data element details for STARLINK-33567 (NORAD 62773). STARLINK-33567 can be tracked NOW for your location showing map with azimuth and elevation plus other details from your city location.







IsCatalogInMostPopularTable: catalog: 62773, numindb: 248
Update: records affected: 1



GetName: 62773 STARLINK-33567

Hit Count: updated at: Sat, 07 Feb 2026 21:50:55 GMT